SKYSAT-C11

Last updated on Tue Jul 28 2026 00:02:52 GMT+0000 (Coordinated Universal Time)

1 42987U 17068A 26207.98343022 .00028356 00000+0 35290-3 0 9995 2 42987 97.4384 358.6176 0001509 143.7223 216.4136 15.59915494489444
UTC large
Height (km)
Speed (km/s)
/
Latitude / Longitude
Inclination (degrees)
Orbital Period (minutes)
Azimuth
Elevation
Range (km)
Doppler Factor

Next 0 passes for location: London (51.5072 / 0.1276)

No passes found over London.
SKYSAT-C11